Location: Angwan Shehu
(11.2514°N, 7.4613°E)
Time: 10:27:56
(UTC+00:00)

Courier 1B Rocket - Visible Passes

Search period start: 19 April 2021 00:00
Search period end: 29 April 2021 00:00
Orbit: 920 x 1202 km, 28.2° (Epoch: 18 April)

Date Brightness Start Highest point End Pass type
(mag) Time Alt. Az. Time Alt. Az. Time Alt. Az.
19 Apr 6.3 02:49:55 38° SE 02:49:55 38° SE 02:54:26 10° SE visible
19 Apr 6.7 04:36:21 12° WSW 04:40:35 19° SSW 04:45:35 10° S visible
19 Apr 6.2 18:00:22 10° W 18:06:27 41° NNW 18:12:57 10° NE visible
19 Apr 7.0 19:55:58 10° WNW 20:01:04 22° N 20:03:32 18° NNE visible
20 Apr 6.3 03:39:47 28° SSW 03:39:47 28° SSW 03:45:40 10° SSE visible
20 Apr 6.9 18:54:11 10° WNW 18:59:28 25° NNW 19:05:03 10° NE visible
20 Apr 7.3 20:49:43 10° NW 20:52:47 18° NNW 20:52:47 18° NNW visible
21 Apr 7.1 02:43:12 19° SSE 02:43:12 19° SSE 02:45:12 10° SE visible
21 Apr 7.1 04:29:37 10° SW 04:31:53 12° SSW 04:34:19 10° SSW visible
21 Apr 6.6 17:52:27 10° WNW 17:58:01 30° NNW 18:03:53 10° NE visible
21 Apr 7.1 19:48:13 10° NW 19:52:51 19° N 19:55:35 15° NNE visible
22 Apr 7.0 03:32:57 16° S 03:32:57 16° S 03:35:35 10° S visible
22 Apr 7.1 18:46:31 10° NW 18:51:13 20° N 18:56:07 10° NE visible
22 Apr 7.2 20:41:26 10° NW 20:44:42 19° N 20:44:42 19° N visible
23 Apr 7.1 19:40:14 10° NW 19:44:41 18° N 19:47:25 15° NNE visible
23 Apr 7.8 21:33:42 10° NW 21:33:47 10° NW 21:33:47 10° NW visible
24 Apr 7.1 18:38:48 10° NW 18:43:02 18° N 18:47:26 10° NE visible
24 Apr 7.0 20:32:52 10° NW 20:36:27 21° N 20:36:27 21° N visible
25 Apr 6.9 19:31:57 10° NW 19:36:29 19° N 19:39:06 16° NE visible
25 Apr 7.7 21:24:51 10° NW 21:25:27 13° NW 21:25:27 13° NW visible
26 Apr 7.1 18:30:49 10° NW 18:34:53 17° N 18:39:04 10° NE visible
26 Apr 6.7 20:24:06 10° NW 20:28:05 25° N 20:28:05 25° N visible
27 Apr 6.7 19:23:21 10° NW 19:28:14 21° NNE 19:30:44 18° NE visible
27 Apr 7.5 21:15:59 10° NW 21:17:05 15° NW 21:17:05 15° NW visible
28 Apr 7.0 18:22:30 10° NNW 18:26:42 18° N 18:31:03 10° NE visible
28 Apr 6.4 20:15:15 10° NW 20:19:43 32° N 20:19:43 32° N visible
